EN

Hourly Weather Dzvenyache

Today, 26 October, Monday

Time Temperature Precipitation Wind Pressure Humidity
00:00 +11°C° 0 mm 3 mps 745 mmHg 77%
01:00 +10°C° 0 mm 3 mps 745 mmHg 78%
02:00 +10°C° 0 mm 3 mps 745 mmHg 79%
03:00 +10°C° 0 mm 3 mps 745 mmHg 79%
04:00 +10°C° 0 mm 3 mps 745 mmHg 79%
05:00 +10°C° 0 mm 3 mps 745 mmHg 80%
06:00 +10°C° 0 mm 3 mps 745 mmHg 79%
07:00 +10°C° 0 mm 4 mps 745 mmHg 78%
08:00 +10°C° 0 mm 4 mps 745 mmHg 77%
09:00 +12°C° 0 mm 4 mps 745 mmHg 73%
10:00 +13°C° 0 mm 4 mps 745 mmHg 70%
11:00 +15°C° 0 mm 5 mps 745 mmHg 66%
12:00 +15°C° 0 mm 5 mps 744 mmHg 65%
13:00 +16°C° 0 mm 5 mps 744 mmHg 63%
14:00 +16°C° 0 mm 5 mps 744 mmHg 62%
15:00 +17°C° 0 mm 4 mps 744 mmHg 66%
16:00 +15°C° 0 mm 4 mps 744 mmHg 70%
17:00 +14°C° 0 mm 3 mps 744 mmHg 74%
18:00 +13°C° 0 mm 3 mps 744 mmHg 74%
19:00 +13°C° 0 mm 3 mps 744 mmHg 75%
20:00 +12°C° 0 mm 3 mps 744 mmHg 75%
21:00 +12°C° 0 mm 3 mps 744 mmHg 75%
22:00 +12°C° 0 mm 3 mps 744 mmHg 76%
23:00 +11°C° 0 mm 3 mps 744 mmHg 76%

Tomorrow, 27 October, Tuesday

Time Temperature Precipitation Wind Pressure Humidity
00:00 +11°C° 0 mm 3 mps 744 mmHg 77%
01:00 +10°C° 0 mm 3 mps 744 mmHg 77%
02:00 +10°C° 0 mm 3 mps 744 mmHg 77%
03:00 +10°C° 0 mm 3 mps 744 mmHg 77%
04:00 +8°C° 0 mm 4 mps 744 mmHg 78%
05:00 +8°C° 0 mm 4 mps 745 mmHg 78%
06:00 +9°C° 0 mm 3 mps 745 mmHg 77%
07:00 +10°C° 0 mm 3 mps 745 mmHg 76%
08:00 +10°C° 0 mm 3 mps 745 mmHg 75%
09:00 +11°C° 0 mm 3 mps 745 mmHg 70%
10:00 +13°C° 0 mm 4 mps 745 mmHg 66%
11:00 +14°C° 0 mm 4 mps 745 mmHg 62%
12:00 +15°C° 0 mm 4 mps 745 mmHg 60%
13:00 +17°C° 0 mm 4 mps 745 mmHg 59%
14:00 +18°C° 0 mm 4 mps 745 mmHg 57%
15:00 +17°C° 0 mm 4 mps 745 mmHg 61%
16:00 +16°C° 0 mm 3 mps 745 mmHg 65%
17:00 +14°C° 0 mm 3 mps 745 mmHg 69%
18:00 +13°C° 0 mm 3 mps 745 mmHg 71%
19:00 +13°C° 0 mm 3 mps 745 mmHg 72%
20:00 +12°C° 0 mm 4 mps 745 mmHg 74%
21:00 +12°C° 0 mm 4 mps 745 mmHg 75%
22:00 +12°C° 0 mm 4 mps 745 mmHg 77%
23:00 +12°C° 0 mm 4 mps 745 mmHg 78%

Day after tomorrow, 28 October, Wednesday

Time Temperature Precipitation Wind Pressure Humidity
00:00 +11°C° 0 mm 3 mps 745 mmHg 80%
01:00 +11°C° 0 mm 3 mps 745 mmHg 82%
02:00 +11°C° 0 mm 3 mps 745 mmHg 83%
03:00 +10°C° 0 mm 3 mps 745 mmHg 85%
04:00 +10°C° 0 mm 3 mps 745 mmHg 86%
05:00 +9°C° 0 mm 3 mps 745 mmHg 87%
06:00 +10°C° 0 mm 3 mps 745 mmHg 83%
07:00 +10°C° 0 mm 4 mps 745 mmHg 80%
08:00 +10°C° 0 mm 4 mps 746 mmHg 76%
09:00 +11°C° 0 mm 4 mps 746 mmHg 70%
10:00 +12°C° 0 mm 4 mps 746 mmHg 65%
11:00 +14°C° 0 mm 4 mps 746 mmHg 59%
12:00 +14°C° 0 mm 4 mps 746 mmHg 57%
13:00 +15°C° 0 mm 4 mps 746 mmHg 55%
14:00 +17°C° 0 mm 4 mps 745 mmHg 53%
15:00 +16°C° 0 mm 3 mps 745 mmHg 57%
16:00 +13°C° 0 mm 3 mps 745 mmHg 61%
17:00 +12°C° 0 mm 3 mps 745 mmHg 65%
18:00 +12°C° 0 mm 3 mps 745 mmHg 67%
19:00 +11°C° 0 mm 3 mps 745 mmHg 70%
20:00 +10°C° 0 mm 3 mps 746 mmHg 72%
21:00 +10°C° 0 mm 3 mps 746 mmHg 73%
22:00 +9°C° 0 mm 3 mps 746 mmHg 74%
23:00 +9°C° 0 mm 2 mps 746 mmHg 76%

29 October, Thursday

Time Temperature Precipitation Wind Pressure Humidity
00:00 +8°C° 0 mm 2 mps 745 mmHg 77%
01:00 +8°C° 0 mm 2 mps 745 mmHg 78%
02:00 +9°C° 0 mm 1 mps 745 mmHg 79%
03:00 +7°C° 0 mm 2 mps 745 mmHg 80%
04:00 +7°C° 0 mm 2 mps 745 mmHg 82%
05:00 +7°C° 0 mm 2 mps 745 mmHg 83%
06:00 +7°C° 0 mm 2 mps 745 mmHg 83%
07:00 +8°C° 0 mm 1 mps 745 mmHg 82%
08:00 +9°C° 0 mm 1 mps 745 mmHg 82%
09:00 +10°C° 0 mm 1 mps 745 mmHg 76%
10:00 +12°C° 0 mm 2 mps 745 mmHg 71%
11:00 +13°C° 0 mm 2 mps 745 mmHg 65%
12:00 +14°C° 0 mm 1 mps 745 mmHg 63%
13:00 +14°C° 0 mm 1 mps 745 mmHg 61%
14:00 +15°C° 0 mm 1 mps 745 mmHg 59%
15:00 +14°C° 0 mm 1 mps 745 mmHg 63%
16:00 +12°C° 0 mm 0 mps 745 mmHg 67%
17:00 +11°C° 0 mm 0 mps 745 mmHg 71%
18:00 +11°C° 0 mm 0 mps 745 mmHg 73%
19:00 +10°C° 0 mm 0 mps 745 mmHg 76%
20:00 +11°C° 0 mm 1 mps 745 mmHg 78%
21:00 +11°C° 0 mm 1 mps 746 mmHg 79%
22:00 +10°C° 0 mm 1 mps 746 mmHg 81%
23:00 +10°C° 0 mm 1 mps 746 mmHg 82%

30 October, Friday

Time Temperature Precipitation Wind Pressure Humidity
00:00 +10°C° 0 mm 1 mps 746 mmHg 83%
01:00 +10°C° 0 mm 1 mps 746 mmHg 83%
02:00 +10°C° 0 mm 1 mps 746 mmHg 84%
03:00 +10°C° 0 mm 1 mps 746 mmHg 84%
04:00 +10°C° 0 mm 1 mps 746 mmHg 84%
05:00 +10°C° 0 mm 1 mps 746 mmHg 84%
06:00 +10°C° 0 mm 2 mps 747 mmHg 85%
07:00 +10°C° 0 mm 2 mps 747 mmHg 85%
08:00 +12°C° 0 mm 2 mps 747 mmHg 86%
09:00 +13°C° 0 mm 2 mps 748 mmHg 81%
10:00 +14°C° 0 mm 2 mps 748 mmHg 76%
11:00 +14°C° 0 mm 3 mps 748 mmHg 71%
12:00 +16°C° 0 mm 3 mps 748 mmHg 66%
13:00 +17°C° 0 mm 3 mps 748 mmHg 61%
14:00 +17°C° 0 mm 3 mps 748 mmHg 56%
15:00 +16°C° 0 mm 3 mps 748 mmHg 60%
16:00 +15°C° 0 mm 2 mps 748 mmHg 65%
17:00 +14°C° 0 mm 2 mps 748 mmHg 69%
18:00 +13°C° 0 mm 2 mps 749 mmHg 71%
19:00 +13°C° 0 mm 1 mps 749 mmHg 73%
20:00 +12°C° 0 mm 1 mps 749 mmHg 76%
21:00 +12°C° 0 mm 1 mps 749 mmHg 78%
22:00 +10°C° 0 mm 2 mps 749 mmHg 80%
23:00 +10°C° 0 mm 2 mps 749 mmHg 82%

31 October, Saturday

Time Temperature Precipitation Wind Pressure Humidity
00:00 +10°C° 0 mm 2 mps 749 mmHg 84%
01:00 +9°C° 0 mm 2 mps 749 mmHg 85%
02:00 +9°C° 0 mm 2 mps 749 mmHg 87%
03:00 +9°C° 0 mm 2 mps 749 mmHg 88%
04:00 +9°C° 0 mm 2 mps 749 mmHg 88%
05:00 +9°C° 0 mm 2 mps 749 mmHg 89%
06:00 +9°C° 0 mm 2 mps 749 mmHg 88%
07:00 +9°C° 0 mm 2 mps 749 mmHg 86%
08:00 +9°C° 0 mm 2 mps 750 mmHg 85%
Show more